This is the latest recevied weather packets stored in our database for station/object KF4UQS-14. If no packets are shown the sender has not sent any weather packets the latest 1 day(s).
| Time | Temp. | Humidity | Pressure | Rain* | Wind** | Luminosity | Snow |
|---|---|---|---|---|---|---|---|
| 1778089306 | 25.56° C | 59% | 1013.9 hPa | 0 mm | - | 404 W/m² | - |
| 1778089004 | 25.56° C | 59% | 1013.9 hPa | 0 mm | - | 323 W/m² | - |
| 1778088700 | 25.56° C | 59% | 1013.6 hPa | 0 mm | - | 321 W/m² | - |
| 1778088093 | 25° C | 62% | 1013.8 hPa | 0 mm | - | 194 W/m² | - |
| 1778087791 | 25° C | 62% | 1013.9 hPa | 0 mm | - | 253 W/m² | - |
| 1778086575 | 25° C | 63% | 1013.9 hPa | 0 mm | - | 404 W/m² | - |
| 1778086266 | 24.44° C | 64% | 1013.9 hPa | 0 mm | - | 353 W/m² | - |
| 1778084748 | 24.44° C | 66% | 1014.4 hPa | 0 mm | - | 249 W/m² | - |
| 1778083532 | 23.33° C | 69% | 1015 hPa | 0 mm | - | 280 W/m² | - |
| 1778082927 | 23.33° C | 69% | 1014.9 hPa | 0 mm | - | 228 W/m² | - |
| 1778080910 | 23.89° C | 66% | 1015.5 hPa | 0 mm | - | 162 W/m² | - |
| 1778079092 | 24.44° C | 64% | 1015.3 hPa | 0 mm | - | 366 W/m² | - |
| 1778077882 | 23.89° C | 65% | 1015.1 hPa | 0 mm | - | 316 W/m² | - |
| 1778077278 | 23.89° C | 67% | 1015 hPa | 0 mm | - | 400 W/m² | - |
| 1778076068 | 23.33° C | 69% | 1015 hPa | 0 mm | - | 235 W/m² | - |
| 1778073339 | 22.22° C | 72% | 1015.2 hPa | 0 mm | - | 167 W/m² | - |
| 1778072430 | 21.11° C | 76% | 1015 hPa | 0 mm | - | 126 W/m² | - |
| 1778072128 | 21.11° C | 77% | 1015.1 hPa | 0 mm | - | 134 W/m² | - |
| 1778068497 | 18.89° C | 84% | 1015.3 hPa | 0 mm | - | 93 W/m² | - |
| 1778068195 | 18.89° C | 84% | 1015.5 hPa | 0 mm | - | 87 W/m² | - |
| 1778067591 | 18.33° C | 85% | 1015.8 hPa | 0 mm | - | 81 W/m² | - |
| 1778065774 | 17.78° C | 87% | 1015.3 hPa | 0 mm | - | 57 W/m² | - |
| 1778064562 | 16.67° C | 90% | 1015.2 hPa | 0 mm | - | 31 W/m² | - |
| 1778064260 | 16.67° C | 90% | 1015.2 hPa | 0 mm | - | 27 W/m² | - |
| 1778063958 | 16.67° C | 90% | 1015.2 hPa | 0 mm | - | 24 W/m² | - |
* Rain latest hour (hover to see other rain measurements)
** Current wind speed in m/s (hover to see current wind gust speed)